This demonstration page uses our WeatherBlox Daily Observations layout. Learn more.

Left ArrowRight Arrow

Hourly Observations for September 2, 2019

Temp ( °F °C ) Dew Point ( °F °C ) Humidity (%) Winds ( mph kmh ) Pressure ( in mb ) Visibility ( mi km ) Precip ( " mm )
12:15 am 00:15 Clear 68 20.1 68 20 99 99 ESE 6 9 29.99 1016 7 11 0.00 0.00
12:35 am 00:35 Clear 68 20.2 68 20 99 99 SE 6 9 29.99 1016 7 11 0.00 0.00
12:55 am 00:55 Clear 68 20.1 68 20 99 99 SE 5 7 29.99 1016 7 11 0.00 0.00
1:15 am 01:15 Clear with Mist and Fog 67 19.5 67 19.5 100 100 ESE 3 6 30.00 1016 5 8 0.00 0.00
1:35 am 01:35 Clear with Mist and Fog 67 19.4 67 19.4 100 100 ESE 6 9 29.99 1015 5 8 0.00 0.00
1:55 am 01:55 Clear with Mist and Fog 67 19.5 67 19.5 100 100 ESE 5 7 29.98 1015 4 6 0.00 0.00
2:15 am 02:15 Clear with Mist and Fog 67 19.6 67 19.6 100 100 ESE 7 11 29.98 1015 4 6 0.00 0.00
2:35 am 02:35 Clear with Mist and Fog 67 19.7 67 19.7 100 100 SE 6 9 29.98 1015 5 8 0.00 0.00
2:55 am 02:55 Clear with Mist and Fog 68 19.8 68 19.8 100 100 SE 7 11 29.97 1015 5 8 0.00 0.00
3:15 am 03:15 Clear with Mist and Fog 68 20.1 68 20 99 99 SE 7 11 29.97 1015 5 8 0.00 0.00
3:35 am 03:35 Clear with Mist and Fog 68 20 68 19.9 99 99 SSE 7 11 29.97 1015 5 8 0.00 0.00
3:55 am 03:55 Clear with Mist and Fog 68 19.9 68 19.9 100 100 SSE 9 15 29.96 1015 5 8 0.00 0.00
4:15 am 04:15 Clear 69 20.5 69 20.3 99 99 SSE 13 20 29.95 1014 7 11 0.00 0.00
4:35 am 04:35 Clear 69 20.6 69 20.4 99 99 SSE 14 22 29.95 1014 7 11 0.00 0.00
4:55 am 04:55 Mostly Cloudy 69 20.7 69 20.5 99 99 S 14 22 29.94 1014 7 11 0.00 0.00
5:15 am 05:15 Mostly Cloudy 69 20.6 69 20.4 99 99 S 12 19 29.93 1013 7 11 0.00 0.00
5:35 am 05:35 Cloudy 69 20.8 69 20.5 98 98 SSE 12 19 29.93 1013 7 11 0.00 0.00
5:55 am 05:55 Cloudy 70 21 69 20.5 97 97 S 12 19 29.92 1013 7 11 0.00 0.00
6:15 am 06:15 Cloudy 69 20.8 69 20.5 98 98 SSE 9 15 29.94 1014 7 11 0.00 0.00
6:35 am 06:35 Cloudy 69 20.7 69 20.3 98 98 SE 6 9 29.93 1013 7 11 0.00 0.00
6:55 am 06:55 Cloudy 69 20.8 69 20.3 97 97 SE 3 6 29.94 1014 7 11 0.00 0.00
7:15 am 07:15 Cloudy 69 20.7 69 20.5 99 99 SSE 5 7 29.94 1014 7 11 0.00 0.00
7:35 am 07:35 Cloudy 69 20.8 69 20.3 97 97 S 7 11 29.95 1014 7 11 0.00 0.00
7:55 am 07:55 Cloudy with Mist and Fog 69 20.8 69 20.3 97 97 S 5 7 29.95 1014 5 8 0.00 0.00
8:15 am 08:15 Cloudy 70 21 69 20.4 96 96 SE 3 6 29.95 1014 7 11 0.00 0.00
8:35 am 08:35 Cloudy with Mist and Fog 70 21.2 69 20.6 96 96 S 8 13 29.94 1014 5 8 0.00 0.00
8:55 am 08:55 Cloudy 71 21.7 69 20.6 94 94 S 10 17 29.94 1014 7 11 0.00 0.00
9:15 am 09:15 Mostly Cloudy 72 22 69 20.6 92 92 S 12 19 29.92 1013 7 11 0.00 0.00
9:35 am 09:35 Mostly Cloudy 73 22.5 70 20.9 91 91 S 10 17 29.92 1013 7 11 0.00 0.00
9:55 am 09:55 Mostly Cloudy 73 22.7 70 21 90 90 S 9 15 29.92 1013 10 16 0.00 0.00
10:15 am 10:15 Partly Cloudy 74 23.6 70 21.2 86 86 SSE 12 19 29.89 1012 10 16 0.00 0.00
10:35 am 10:35 Partly Cloudy 76 24.3 71 21.5 84 84 S 13 20 29.89 1012 10 16 0.00 0.00
10:55 am 10:55 Partly Cloudy 77 25 71 21.5 81 81 SSW 9 15 29.88 1012 10 16 0.00 0.00
11:15 am 11:15 Partly Cloudy 78 25.6 71 21.6 79 79 S 10 17 29.86 1011 10 16 0.00 0.00
11:35 am 11:35 Sunny 79 26.2 71 21.7 76 76 SSW 14 22 29.85 1011 10 16 0.00 0.00
11:55 am 11:55 Sunny 80 26.7 72 22 75 75 S 15 24 29.85 1011 10 16 0.00 0.00
12:15 pm 12:15 Sunny 81 27.3 71 21.6 71 71 SSW 12 19 29.84 1011 10 16 0.00 0.00
12:35 pm 12:35 Sunny 82 28 72 22.3 71 71 S 13 20 29.83 1010 10 16 0.00 0.00
12:55 pm 12:55 Sunny 83 28.6 73 22.5 70 70 S 13 20 29.81 1009 10 16 0.00 0.00
1:15 pm 13:15 Sunny 84 29 72 22.2 67 67 S 10 17 29.81 1009 10 16 0.00 0.00
1:30 pm 13:30 Sunny 85 29.6 73 22.7 66 66 S 15 24 29.79 1009 10 16 0.00 0.00
1:55 pm 13:55 Sunny 86 30.1 73 22.5 64 64 S 15 24 29.79 1009 10 16 0.00 0.00
2:15 pm 14:15 Sunny 87 30.7 74 23.5 65 65 S 13 20 29.77 1008 10 16 0.00 0.00
2:35 pm 14:35 Sunny 88 30.9 74 23.3 64 64 S 13 20 29.77 1008 10 16 0.00 0.00
2:55 pm 14:55 Sunny 88 31.2 74 23.1 62 62 S 16 26 29.75 1007 10 16 0.00 0.00
3:15 pm 15:15 Sunny 90 32 72 22.3 56 56 S 17 28 29.73 1007 10 16 0.00 0.00
3:35 pm 15:35 Sunny 90 32.2 73 22.6 57 57 SSW 16 26 29.73 1007 10 16 0.00 0.00
3:55 pm 15:55 Sunny 91 32.5 73 22.7 56 56 SSW 14 22 29.73 1007 7 11 0.00 0.00
4:15 pm 16:15 Sunny 91 32.5 73 22.8 57 57 S 13 20 29.72 1006 7 11 0.00 0.00
4:35 pm 16:35 Sunny 91 32.6 73 22.9 57 57 SSW 15 24 29.71 1006 10 16 0.00 0.00
4:55 pm 16:55 Sunny 91 32.8 74 23.3 57 57 S 13 20 29.70 1006 10 16 0.00 0.00
5:15 pm 17:15 Sunny 91 33 73 22.7 55 55 S 13 20 29.69 1005 10 16 0.00 0.00
5:35 pm 17:35 Sunny 89 31.8 73 22.9 59 59 S 12 19 29.69 1005 10 16 0.00 0.00
5:55 pm 17:55 Sunny 87 30.8 72 22.4 61 61 S 6 9 29.70 1006 10 16 0.00 0.00
6:15 pm 18:15 Sunny 90 32 73 22.8 58 58 S 8 13 29.68 1005 10 16 0.00 0.00
6:35 pm 18:35 Sunny 89 31.5 73 23 61 61 S 9 15 29.68 1005 10 16 0.00 0.00
6:55 pm 18:55 Sunny 87 30.6 73 22.9 64 64 S 7 11 29.69 1005 10 16 0.00 0.00
7:15 pm 19:15 Sunny 86 29.8 73 22.5 65 65 S 8 13 29.69 1005 10 16 0.00 0.00
7:35 pm 19:35 Sunny 84 28.7 71 21.5 65 65 S 9 15 29.69 1005 10 16 0.00 0.00
7:55 pm 19:55 Sunny 82 27.5 70 21.1 68 68 S 8 13 29.70 1006 10 16 0.00 0.00
8:15 pm 20:15 Clear 80 26.6 69 20.5 69 69 S 8 13 29.71 1006 10 16 0.00 0.00
8:35 pm 20:35 Clear 79 26.1 68 20 69 69 S 10 17 29.72 1006 10 16 0.00 0.00
8:55 pm 20:55 Clear 80 26.7 67 19.6 65 65 SSW 10 17 29.73 1007 10 16 0.00 0.00
9:15 pm 21:15 Clear 80 26.6 67 19.3 64 64 S 12 19 29.72 1006 10 16 0.00 0.00
9:35 pm 21:35 Clear 80 26.6 67 19.2 64 64 S 15 24 29.72 1006 10 16 0.00 0.00
9:55 pm 21:55 Clear 80 26.5 66 19.1 64 64 S 14 22 29.74 1007 10 16 0.00 0.00
10:15 pm 22:15 Clear 79 25.9 67 19.2 67 67 SSW 12 19 29.74 1007 10 16 0.00 0.00
10:35 pm 22:35 Clear 78 25.7 66 19.1 67 67 SSW 14 22 29.75 1008 10 16 0.00 0.00
10:55 pm 22:55 Clear 77 24.9 66 19.1 70 70 SSW 12 19 29.76 1008 10 16 0.00 0.00
11:15 pm 23:15 Clear 76 24.7 66 19 71 71 SSW 9 15 29.77 1008 10 16 0.00 0.00
11:35 pm 23:35 Clear 76 24.3 66 18.7 71 71 SSW 9 15 29.78 1008 10 16 0.00 0.00
11:55 pm 23:55 Clear 76 24.3 65 18.5 70 70 SSW 10 17 29.78 1008 10 16 0.00 0.00

Powered by AerisWeather